Location: *
(46.1833°N, 22.7667°E)
Time: 15:54:31
(UTC+00:00)

Cosmos 1536 Rocket - Pass Details

Date: 17 September 2019
Orbit: 604 x 633 km, 82.5° (Epoch: 15 October)

Event Time Altitude Azimuth Distance (km) Brightness Sun altitude
Rises 17:23:35 0° 350° (N) 2,876 7.3 -8.8°
Reaches altitude 10° 17:25:49 10° 349° (N) 1,965 6.5 -9.1°
Maximum altitude 17:30:10 81° 263° (W) 618 3.6 -9.9°
Drops below altitude 10° 17:34:28 10° 176° (S) 1,947 5.9 -10.6°
Sets 17:36:40 0° 175° (S) 2,846 6.8 -11.0°
